Weather History for Chicopee, MA

Change the Weather History Date:

Wednesday, May 2, 2012

  Actual Average Record
Temperature  
Mean Temperature 50 °F -  
Max Temperature 55 °F 65 °F 91 °F (2001)
Min Temperature 44 °F 43 °F 32 °F (2005)
Degree Days  
Heating Degree Days 16    
Moisture  
Dew Point 44 °F    
Average Humidity 83    
Maximum Humidity 93    
Minimum Humidity 67    
Precipitation  
Precipitation 0.00 in - - ()
Sea Level Pressure  
Sea Level Pressure 30.18 in    
Wind  
Wind Speed 3 mph (ENE)    
Max Wind Speed 7 mph    
Max Gust Speed -    
Visibility 10 miles    
Events      
Averages and records for this station are not official NWS values.
T = Trace of Precipitation, MM = Missing Value Source: NWS Daily Summary

Daily Weather History Graph

Daily Weather History Graph

Search for Another Location

Airport:

Trip Planner

Search our weather history database for the weather conditions in past years. The results will help you decide how hot, cold, wet, or windy it might be!

Date:

Astronomy

May. 02, 2012 Rise Set
Actual Time 5:43 AM EDT 7:51 PM EDT
Civil Twilight 5:13 AM EDT 8:21 PM EDT
Nautical Twilight 4:35 AM EDT 8:59 PM EDT
Astronomical Twilight 3:54 AM EDT 9:41 PM EDT
Moon 3:56 PM EDT (5/2) 3:16 AM EDT (5/2)
Length of Visible Light 15h 08m
Length of Day
14h 07m
Waxing Gibbous, 83% of the Moon is Illuminated
May 2
Waxing Gibbous
May 5
Full
May 12
Last Quarter
May 20
New
May 28
First Quarter

Hourly Weather History & Observations

Time (EDT) Temp. Windchill Dew Point Humidity Pressure Visibility Wind Dir Wind Speed Gust Speed Precip Events Conditions
12:55 AM 46.0 °F 43.1 °F 42.8 °F 88% 30.15 in 10.0 mi NE 5.8 mph - N/A   Overcast
1:55 AM 45.7 °F 43.4 °F 42.1 °F 87% 30.14 in 10.0 mi East 4.6 mph - N/A   Overcast
2:55 AM 45.5 °F - 42.1 °F 88% 30.16 in 10.0 mi Calm Calm - N/A   Overcast
3:55 AM 45.1 °F 43.7 °F 42.3 °F 90% 30.15 in 10.0 mi East 3.5 mph - N/A   Overcast
4:14 AM 44.6 °F - 42.8 °F 93% 30.15 in 10.0 mi Calm Calm - N/A   Overcast
4:42 AM 44.6 °F 43.1 °F 42.8 °F 93% 30.16 in 10.0 mi ENE 3.5 mph - N/A   Overcast
4:43 AM 44.6 °F 43.1 °F 42.8 °F 93% 30.16 in 10.0 mi ENE 3.5 mph - N/A   Overcast
4:55 AM 44.1 °F 41.5 °F 41.9 °F 92% 30.15 in 10.0 mi East 4.6 mph - N/A   Overcast
5:01 AM 44.6 °F 43.1 °F 42.8 °F 93% 30.16 in 10.0 mi ENE 3.5 mph - N/A   Overcast
5:40 AM 44.6 °F 43.1 °F 42.8 °F 93% 30.17 in 10.0 mi ENE 3.5 mph - N/A   Overcast
5:44 AM 44.6 °F 43.1 °F 42.8 °F 93% 30.17 in 10.0 mi ENE 3.5 mph - N/A   Overcast
5:55 AM 44.8 °F 43.3 °F 42.1 °F 90% 30.17 in 10.0 mi NE 3.5 mph - N/A   Overcast
5:57 AM 44.6 °F 43.1 °F 42.8 °F 93% 30.17 in 10.0 mi ENE 3.5 mph - N/A   Overcast
6:12 AM 44.6 °F 41.4 °F 42.8 °F 93% 30.17 in 10.0 mi ENE 5.8 mph - N/A   Overcast
6:28 AM 44.6 °F 40.7 °F 42.8 °F 93% 30.17 in 10.0 mi NE 6.9 mph - N/A   Overcast
6:40 AM 44.6 °F 43.1 °F 41.0 °F 87% 30.17 in 10.0 mi NE 3.5 mph - N/A   Overcast
6:55 AM 45.7 °F 42.0 °F 41.9 °F 87% 30.18 in 10.0 mi ENE 6.9 mph - N/A   Overcast
7:55 AM 46.4 °F 44.3 °F 41.5 °F 83% 30.19 in 10.0 mi NE 4.6 mph - N/A   Overcast
8:55 AM 47.8 °F - 42.1 °F 80% 30.19 in 10.0 mi Calm Calm - N/A   Overcast
9:55 AM 48.2 °F - 42.8 °F 82% 30.21 in 10.0 mi ENE 4.6 mph - N/A   Overcast
10:55 AM 48.9 °F - 43.2 °F 80% 30.22 in 10.0 mi ENE 4.6 mph - N/A   Overcast
11:55 AM 49.5 °F - 43.2 °F 79% 30.21 in 10.0 mi Calm Calm - N/A   Overcast
12:19 PM 50.0 °F - 42.8 °F 76% 30.21 in 10.0 mi ENE 5.8 mph - N/A   Overcast
12:55 PM 50.9 °F - 43.2 °F 75% 30.20 in 10.0 mi East 5.8 mph - N/A   Overcast
1:55 PM 51.8 °F - 43.7 °F 74% 30.20 in 10.0 mi East 4.6 mph - N/A   Overcast
2:35 PM 51.8 °F - 44.6 °F 76% 30.20 in 10.0 mi Variable 3.5 mph - N/A   Overcast
2:55 PM 52.9 °F - 44.2 °F 72% 30.19 in 10.0 mi Calm Calm - N/A   Overcast
3:25 PM 53.6 °F - 44.6 °F 72% 30.17 in 10.0 mi SE 5.8 mph - N/A   Light Drizzle
3:31 PM 55.4 °F - 44.6 °F 67% 30.17 in 10.0 mi Calm Calm - N/A   Overcast
3:55 PM 53.2 °F - 44.8 °F 73% 30.17 in 10.0 mi ENE 5.8 mph - 0.00 in   Overcast
4:55 PM 54.1 °F - 45.1 °F 72% 30.18 in 10.0 mi Calm Calm - N/A   Overcast
5:55 PM 54.1 °F - 45.3 °F 72% 30.19 in 10.0 mi Calm Calm - N/A   Overcast
6:55 PM 53.6 °F - 46.0 °F 76% 30.18 in 10.0 mi Calm Calm - N/A   Overcast
7:55 PM 53.1 °F - 46.0 °F 77% 30.18 in 10.0 mi Calm Calm - N/A   Overcast
8:55 PM 52.7 °F - 46.0 °F 78% 30.18 in 10.0 mi Calm Calm - N/A   Overcast
9:22 PM 51.8 °F - 46.4 °F 82% 30.19 in 10.0 mi Calm Calm - N/A   Overcast
9:55 PM 52.3 °F - 46.0 °F 79% 30.18 in 10.0 mi Calm Calm - N/A   Overcast
10:21 PM 51.8 °F - 46.4 °F 82% 30.17 in 10.0 mi SE 3.5 mph - N/A   Overcast
10:55 PM 51.8 °F - 46.2 °F 81% 30.17 in 10.0 mi Variable 3.5 mph - N/A   Overcast
11:51 PM 51.8 °F - 46.4 °F 82% 30.17 in 10.0 mi Calm Calm - N/A   Overcast
11:55 PM 51.1 °F - 45.9 °F 82% 30.17 in 10.0 mi Calm Calm - N/A   Overcast